Weather History for KOMA - September, 2013

Change the Weather History Date:

Monday, September 16, 2013

  Actual Average Record
Temperature  
Mean Temperature 63 °F 66 °F  
Max Temperature 69 °F 78 °F 97 °F (1931)
Min Temperature 56 °F 54 °F 36 °F (1903)
Degree Days  
Heating Degree Days 2 3  
Month to date heating degree days 3 26  
Since 1 July heating degree days 8 34  
Cooling Degree Days 0 4  
Month to date cooling degree days 149 85  
Year to date cooling degree days 1215 1065  
Growing Degree Days 12 (Base 50)    
Moisture  
Dew Point 52 °F    
Average Humidity 71    
Maximum Humidity 86    
Minimum Humidity 55    
Precipitation  
Precipitation 0.01 in 0.08 in 2.06 in (1968)
Month to date precipitation 1.88 1.53  
Year to date precipitation 23.12 24.64  
Snow  
Snow 0.00 in 0.00 in - ()
Month to date snowfall 0.0 0.0  
Since 1 July snowfall 0.0 0.0  
Snow Depth 0.00 in    
Sea Level Pressure  
Sea Level Pressure 30.27 in    
Wind  
Wind Speed 9 mph (East)    
Max Wind Speed 17 mph    
Max Gust Speed 22 mph    
Visibility 10 miles    
Events Rain    
T = Trace of Precipitation, MM = Missing Value Source: NWS Daily Summary

Daily Weather History Graph

Daily Weather History Graph

Search for Another Location

Airport or City:

Trip Planner

Search our weather history database for the weather conditions in past years. The results will help you decide how hot, cold, wet, or windy it might be!

Date:

Astronomy

Sep. 16, 2013 Rise Set
Actual Time 7:05 AM CDT 7:30 PM CDT
Civil Twilight 6:37 AM CDT 7:58 PM CDT
Nautical Twilight 6:04 AM CDT 8:30 PM CDT
Astronomical Twilight 5:31 AM CDT 9:04 PM CDT
Moon 5:41 PM CDT (9/16) 3:51 AM CDT (9/16)
Length of Visible Light 13h 20m
Length of Day
12h 25m
Waxing Gibbous, 90% of the Moon is Illuminated
Sep 16
Waxing Gibbous
Sep 19
Full
Sep 26
Last Quarter
Oct 4
New
Oct 11
First Quarter

Hourly Weather History & Observations

Time (CDT) Temp. Dew Point Humidity Pressure Visibility Wind Dir Wind Speed Gust Speed Precip Events Conditions
12:52 AM 63.0 °F 52.0 °F 67% 30.26 in 10.0 mi ENE 6.9 mph - N/A   Overcast
1:52 AM 60.1 °F 51.1 °F 72% 30.26 in 10.0 mi NE 4.6 mph - N/A   Mostly Cloudy
2:52 AM 57.9 °F 51.1 °F 78% 30.26 in 10.0 mi NNE 4.6 mph - N/A   Scattered Clouds
3:52 AM 57.9 °F 54.0 °F 87% 30.26 in 10.0 mi Calm Calm - N/A   Overcast
4:52 AM 57.9 °F 52.0 °F 81% 30.27 in 10.0 mi NE 8.1 mph - N/A   Mostly Cloudy
5:52 AM 55.9 °F 52.0 °F 87% 30.29 in 10.0 mi NE 4.6 mph - N/A   Mostly Cloudy
6:52 AM 55.9 °F 52.0 °F 87% 30.30 in 10.0 mi NE 8.1 mph - N/A   Mostly Cloudy
7:52 AM 55.9 °F 52.0 °F 87% 30.31 in 10.0 mi ENE 8.1 mph - N/A   Mostly Cloudy
8:52 AM 59.0 °F 53.1 °F 81% 30.32 in 10.0 mi ENE 8.1 mph - N/A   Mostly Cloudy
9:52 AM 59.0 °F 52.0 °F 78% 30.33 in 10.0 mi East 10.4 mph - N/A   Mostly Cloudy
10:12 AM 60.8 °F 53.6 °F 77% 30.33 in 10.0 mi ENE 8.1 mph - N/A   Mostly Cloudy
10:52 AM 62.1 °F 53.1 °F 72% 30.33 in 10.0 mi ENE 10.4 mph - N/A   Mostly Cloudy
11:52 AM 63.0 °F 52.0 °F 67% 30.33 in 10.0 mi ESE 10.4 mph - N/A   Overcast
12:41 PM 64.4 °F 51.8 °F 64% 30.33 in 10.0 mi East 10.4 mph - N/A   Mostly Cloudy
12:52 PM 64.9 °F 52.0 °F 63% 30.32 in 10.0 mi ESE 10.4 mph - N/A   Overcast
1:52 PM 66.9 °F 52.0 °F 59% 30.29 in 10.0 mi ESE 12.7 mph 18.4 mph N/A   Mostly Cloudy
2:52 PM 68.0 °F 52.0 °F 56% 30.26 in 10.0 mi East 12.7 mph - N/A   Mostly Cloudy
3:52 PM 66.9 °F 52.0 °F 59% 30.24 in 10.0 mi ESE 12.7 mph - N/A   Mostly Cloudy
4:52 PM 66.0 °F 52.0 °F 60% 30.22 in 10.0 mi East 12.7 mph - N/A   Mostly Cloudy
5:52 PM 64.9 °F 52.0 °F 63% 30.20 in 10.0 mi ESE 10.4 mph - N/A   Mostly Cloudy
6:52 PM 64.0 °F 52.0 °F 65% 30.21 in 10.0 mi SE 12.7 mph - 0.00 in   Overcast
7:52 PM 62.1 °F 52.0 °F 70% 30.21 in 10.0 mi SE 10.4 mph - N/A   Overcast
8:52 PM 61.0 °F 54.0 °F 78% 30.22 in 10.0 mi ESE 4.6 mph - 0.00 in   Overcast
9:52 PM 61.0 °F 53.1 °F 75% 30.22 in 10.0 mi ESE 8.1 mph - N/A   Overcast
10:52 PM 61.0 °F 53.1 °F 75% 30.22 in 10.0 mi SE 8.1 mph - 0.00 in Rain Light Rain
11:06 PM 60.8 °F 53.6 °F 77% 30.22 in 10.0 mi ESE 9.2 mph - 0.00 in Rain Light Rain
11:52 PM 59.0 °F 54.0 °F 83% 30.21 in 10.0 mi ESE 10.4 mph - 0.01 in Rain Light Rain